Content
SEND FEEDBACK

Daily
Averages
Monthly
Summary
Turkmenistan

KURTILE, TURKMENISTAN


Home > Asia > Turkmenistan
Elevation: 748 feet     Latitude: 37 58N     Longitude: 058 19E

WEATHER
 
SELECT A DAY
Number of Records: 180,438;   Date Range: 3/15/97 - 10/1/14
 
SHARE

PRINT THIS DATA

[ ← Previous Day ]
WEATHER ALMANAC - MARCH 5, 2013
[ Next Day → ]
[ °C ]   °F
Weather ElementAverageHighLow
Temperature67 °F78.8 °F (5:00 am)59 °F (1:00 am)
Dewpoint38.7 °F45 °F (2:00 am)21.2 °F (5:00 am)
Humidity35.2 %59 % (1:00 am)12 % (5:00 am)
Barometer29.77 in29.95 in (11:00 pm)29.65 in (4:00 am)
Wind Speed7.4 mph22.4 mph (5:30 pm)
Weather ElementAverage
Visibility6.2 mi
Wind DirectionWSW (255 °)

Weather ElementTotal
Precipitation---
Cooling Degree Days3.9 (Base 65)
Growing Degree Days18.9 (Base 50)
Averaged from 32 records on March 5, 2013
WEATHER CONDITIONS BREAKOUT
WIND DIRECTION BREAKOUT
WEATHER BY HOUR - MARCH 5, 2013
[ °C ]   °F
Local TimeTemperatureDewpointHumidityBarometerVisibilityWind DirectionWind SpeedGust SpeedPrecipitationEventsConditions
1:00 AM59.0 °F44.6 °F59 %29.71 in6.2 miSSE (160°)4.5 mphOvercast
2:00 AM59.0 °F45.0 °F48 %29.70 in6.0 miWest (280°)6.7 mphOvercast
2:00 AM59.0 °F42.8 °F55 %29.68 in6.2 miEast (100°)6.7 mphOvercast
3:00 AM59.0 °F41.0 °F51 %29.68 in6.2 miNW (310°)6.7 mphOvercast
4:00 AM59.0 °F41.0 °F51 %29.65 in6.2 miSSW (200°)6.7 mphOvercast
5:00 AM66.0 °F35.0 °F21 %29.66 in6.0 miWSW (240°)4.5 mphOvercast
5:00 AM78.8 °F21.2 °F12 %29.65 in6.2 miSSW (210°)6.7 mphOvercast
6:00 AM75.2 °F24.8 °F15 %29.65 in6.2 miVariable2.2 mphOvercast
7:00 AM66.2 °F33.8 °F30 %29.65 in6.2 miNorth (350°)6.7 mphOvercast
8:00 AM67.0 °F34.0 °F19 %29.68 in6.0 miWSW (240°)6.7 mphOvercast
8:00 AM66.2 °F33.8 °F30 %29.68 in6.2 miWest (270°)4.5 mphOvercast
9:00 AM66.2 °F37.4 °F35 %29.68 in6.2 miWSW (240°)6.7 mphOvercast
10:00 AM75.2 °F32.0 °F21 %29.74 in6.2 miNW (320°)11.2 mphOvercast
11:00 AM68.0 °F36.0 °F19 %29.77 in6.0 miNNW (330°)11.2 mphOvercast
11:00 AM68.0 °F35.6 °F30 %29.80 in6.2 miWNW (300°)13.4 mphOvercast
12:00 PM69.8 °F37.4 °F31 %29.80 in6.2 miWest (280°)11.2 mphOvercast
1:00 PM73.4 °F37.4 °F27 %29.77 in6.2 miWSW (240°)4.5 mphOvercast
2:00 PM75.0 °F40.0 °F18 %29.77 in6.0 miWest (270°)4.5 mphOvercast
2:00 PM75.2 °F37.4 °F25 %29.77 in6.2 miWest (280°)4.5 mphOvercast
3:00 PM73.4 °F39.2 °F29 %29.77 in6.2 miNNW (330°)8.9 mphOvercast
4:00 PM75.2 °F39.2 °F27 %29.80 in6.2 miWNW (300°)4.5 mphOvercast
5:00 PM75.0 °F42.0 °F20 %29.79 in6.0 miNNW (340°)6.7 mphOvercast
5:00 PM73.4 °F39.2 °F29 %29.83 in6.2 miNNW (330°)6.7 mphOvercast
5:30 PM68.0 °F44.6 °F43 %29.83 in6.2 miNW (320°)22.4 mphOvercast
6:00 PM68.0 °F41.0 °F37 %29.86 in6.2 miNW (320°)15.7 mphOvercast
7:00 PM64.4 °F42.8 °F45 %29.86 in6.2 miNW (320°)11.2 mphOvercast
8:00 PM61.0 °F43.0 °F40 %29.88 in6.0 miWest (270°)6.7 mphOvercast
8:00 PM60.8 °F42.8 °F52 %29.89 in6.2 miWest (270°)6.7 mphOvercast
9:00 PM60.8 °F42.8 °F52 %29.92 in6.2 miVariable2.2 mphOvercast
10:00 PM60.8 °F42.8 °F52 %29.92 in6.2 miENE (60°)4.5 mphOvercast
11:00 PM60.0 °F44.0 °F45 %29.94 in6.0 miNNW (340°)6.7 mphOvercast
11:00 PM59.0 °F44.6 °F59 %29.95 in6.2 miNNW (340°)4.5 mphOvercast
Hourly data recorded from UTAA, located miles away from Kurtile, Turkmenistan







STORIES FROM OUR PARTNERS